Date,TemperatureHighF,TemperatureAvgF,TemperatureLowF,DewpointHighF,DewpointAvgF,DewpointLowF,HumidityHigh,HumidityAvg,HumidityLow,PressureMaxIn,PressureMinIn,WindSpeedMaxMPH,WindSpeedAvgMPH,GustSpeedMaxMPH,PrecipitationSumIn
2013-1-1,47,39,32,-100,-100,-100,0,0,100,0.00,40.00,0,-999,0,0.00
2013-1-2,51,37,29,-100,-100,-100,0,0,100,0.00,40.00,0,-999,0,0.00
2013-1-3,51,40,29,-100,-100,-100,0,0,100,0.00,40.00,0,-999,0,0.00
2013-1-4,52,40,32,-100,-100,-100,0,0,100,0.00,40.00,0,-999,0,0.00
2013-1-5,50,42,34,-100,-100,-100,0,0,100,0.00,40.00,0,-999,0,0.00
2013-1-6,47,42,35,-100,-100,-100,0,0,100,0.00,40.00,0,-999,0,0.00
2013-1-7,55,42,32,-100,-100,-100,0,0,100,0.00,40.00,0,-999,0,0.00
2013-1-8,57,43,36,-100,-100,-100,0,0,100,0.00,40.00,0,-999,0,0.00
2013-1-9,51,42,37,-100,-100,-100,0,0,100,0.00,40.00,0,-999,0,0.00
2013-1-10,48,43,39,-100,-100,-100,0,0,100,0.00,40.00,0,-999,0,0.00
2013-1-11,49,40,33,-100,-100,-100,0,0,100,0.00,40.00,0,-999,0,0.00
2013-1-12,47,37,30,-100,-100,-100,0,0,100,0.00,40.00,0,-999,0,0.00
2013-1-13,46,35,27,-100,-100,-100,0,0,100,0.00,40.00,0,-999,0,0.00
2013-1-14,47,38,32,-100,-100,-100,0,0,100,0.00,40.00,0,-999,0,0.00
2013-1-15,48,36,28,-100,-100,-100,0,0,100,0.00,40.00,0,-999,0,0.00
2013-1-16,51,39,29,-100,-100,-100,0,0,100,0.00,40.00,0,-999,0,0.00
2013-1-17,57,41,31,-100,-100,-100,0,0,100,0.00,40.00,0,-999,0,0.00
2013-1-18,61,42,31,-100,-100,-100,0,0,100,0.00,40.00,0,-999,0,0.00
2013-1-19,57,44,30,-100,-100,-100,0,0,100,0.00,40.00,0,-999,0,0.00
2013-1-20,59,40,31,-100,-100,-100,0,0,100,0.00,40.00,0,-999,0,0.00
2013-1-21,57,42,30,-100,-100,-100,0,0,100,0.00,40.00,0,-999,0,0.00
2013-1-22,60,44,33,-100,-100,-100,0,0,100,0.00,40.00,0,-999,0,0.00
2013-1-23,51,46,43,-100,-100,-100,0,0,100,0.00,40.00,0,-999,0,0.00
2013-1-24,52,49,43,-100,-100,-100,0,0,100,0.00,40.00,0,-999,0,0.00
2013-1-25,64,54,47,-100,-100,-100,0,0,100,0.00,40.00,0,-999,0,0.00
2013-1-26,55,49,43,-100,-100,-100,0,0,100,0.00,40.00,0,-999,0,0.00
2013-1-27,54,46,40,-100,-100,-100,0,0,100,0.00,40.00,0,-999,0,0.00
2013-1-28,51,44,39,-100,-100,-100,0,0,100,0.00,40.00,0,-999,0,0.00
2013-1-29,56,45,39,-100,-100,-100,0,0,100,0.00,40.00,0,-999,0,0.00
2013-1-30,62,53,43,-100,-100,-100,0,0,100,0.00,40.00,0,-999,0,0.00
2013-1-31,58,48,36,-100,-100,-100,0,0,100,0.00,40.00,0,-999,0,0.00
2013-2-1,62,47,36,-100,-100,-100,0,0,100,0.00,40.00,0,-999,0,0.00
2013-2-2,59,47,40,-100,-100,-100,0,0,100,0.00,40.00,0,-999,0,0.00
2013-2-3,59,49,43,-100,-100,-100,0,0,100,0.00,40.00,0,-999,0,0.00
2013-2-4,62,48,36,-100,-100,-100,0,0,100,0.00,40.00,0,-999,0,0.00
2013-2-5,53,48,46,-100,-100,-100,0,0,100,0.00,40.00,0,-999,0,0.00
2013-2-6,58,45,36,-100,-100,-100,0,0,100,0.00,40.00,0,-999,0,0.00
2013-2-7,52,44,36,-100,-100,-100,0,0,100,0.00,40.00,0,-999,0,0.00
2013-2-8,51,43,35,-100,-100,-100,0,0,100,0.00,40.00,0,-999,0,0.00
2013-2-9,55,40,32,-100,-100,-100,0,0,100,0.00,40.00,0,-999,0,0.00
2013-2-10,58,42,31,-100,-100,-100,0,0,100,0.00,40.00,0,-999,0,0.00
2013-2-11,59,44,31,-100,-100,-100,0,0,100,0.00,40.00,0,-999,0,0.00
2013-2-12,58,42,32,-100,-100,-100,0,0,100,0.00,40.00,0,-999,0,0.00
2013-2-13,63,47,36,-100,-100,-100,0,0,100,0.00,40.00,0,-999,0,0.00
2013-2-14,64,49,37,-100,-100,-100,0,0,100,0.00,40.00,0,-999,0,0.00
2013-2-15,67,49,39,-100,-100,-100,0,0,100,0.00,40.00,0,-999,0,0.00
2013-2-16,65,51,38,-100,-100,-100,0,0,100,0.00,40.00,0,-999,0,0.00
2013-2-17,62,49,39,-100,-100,-100,0,0,100,0.00,40.00,0,-999,0,0.00
2013-2-18,50,44,37,-100,-100,-100,0,0,100,0.00,40.00,0,-999,0,0.00
2013-2-19,47,43,36,-100,-100,-100,0,0,100,0.00,40.00,0,-999,0,0.00
2013-2-20,55,44,32,-100,-100,-100,0,0,100,0.00,40.00,0,-999,0,0.00
2013-2-21,57,45,37,-100,-100,-100,0,0,100,0.00,40.00,0,-999,0,0.00
2013-2-22,61,44,35,-100,-100,-100,0,0,100,0.00,40.00,0,-999,0,0.00
2013-2-23,57,49,43,-100,-100,-100,0,0,100,0.00,40.00,0,-999,0,0.00
2013-2-24,60,48,39,-100,-100,-100,0,0,100,0.00,40.00,0,-999,0,0.00
2013-2-25,62,48,34,-100,-100,-100,0,0,100,0.00,40.00,0,-999,0,0.00
2013-2-26,66,47,35,-100,-100,-100,0,0,100,0.00,40.00,0,-999,0,0.00
2013-2-27,69,49,34,-100,-100,-100,0,0,100,0.00,40.00,0,-999,0,0.00
2013-2-28,67,53,41,-100,-100,-100,0,0,100,0.00,40.00,0,-999,0,0.00
2013-3-1,68,54,41,-100,-100,-100,0,0,100,0.00,40.00,0,-999,0,0.00
2013-3-2,71,56,45,-100,-100,-100,0,0,100,0.00,40.00,0,-999,0,0.00
2013-3-3,62,55,47,-100,-100,-100,0,0,100,0.00,40.00,0,-999,0,0.00
2013-3-4,58,50,43,-100,-100,-100,0,0,100,0.00,40.00,0,-999,0,0.00
2013-3-5,57,48,42,-100,-100,-100,0,0,100,0.00,40.00,0,-999,0,0.00
2013-3-6,54,49,41,-100,-100,-100,0,0,100,0.00,40.00,0,-999,0,0.00
2013-3-7,54,45,38,-100,-100,-100,0,0,100,0.00,40.00,0,-999,0,0.00
2013-3-8,58,48,42,-100,-100,-100,0,0,100,0.00,40.00,0,-999,0,0.00
2013-3-9,64,50,40,-100,-100,-100,0,0,100,0.00,40.00,0,-999,0,0.00
2013-3-10,66,54,37,-100,-100,-100,0,0,100,0.00,40.00,0,-999,0,0.00
2013-3-11,73,53,40,-100,-100,-100,0,0,100,0.00,40.00,0,-999,0,0.00
2013-3-12,74,55,43,-100,-100,-100,0,0,100,0.00,40.00,0,-999,0,0.00
2013-3-13,74,58,46,-100,-100,-100,0,0,100,0.00,40.00,0,-999,0,0.00
2013-3-14,72,58,48,-100,-100,-100,0,0,100,0.00,40.00,0,-999,0,0.00
2013-3-15,73,56,45,-100,-100,-100,0,0,100,0.00,40.00,0,-999,0,0.00
2013-3-16,70,54,45,-100,-100,-100,0,0,100,0.00,40.00,0,-999,0,0.00
2013-3-17,68,54,45,-100,-100,-100,0,0,100,0.00,40.00,0,-999,0,0.00
2013-3-18,66,53,42,-100,-100,-100,0,0,100,0.00,40.00,0,-999,0,0.00
2013-3-19,69,54,47,-100,-100,-100,0,0,100,0.00,40.00,0,-999,0,0.00
2013-3-20,62,55,48,-100,-100,-100,0,0,100,0.00,40.00,0,-999,0,0.00
2013-3-21,63,53,46,-100,-100,-100,0,0,100,0.00,40.00,0,-999,0,0.00
2013-3-22,67,50,40,-100,-100,-100,0,0,100,0.00,40.00,0,-999,0,0.00
2013-3-23,67,50,40,-100,-100,-100,0,0,100,0.00,40.00,0,-999,0,0.00
2013-3-24,72,54,42,-100,-100,-100,0,0,100,0.00,40.00,0,-999,0,0.00
2013-3-25,59,50,43,-100,-100,-100,0,0,100,0.00,40.00,0,-999,0,0.00
2013-3-26,66,54,46,-100,-100,-100,0,0,100,0.00,40.00,0,-999,0,0.00
2013-3-27,64,54,47,-100,-100,-100,0,0,100,0.00,40.00,0,-999,0,0.00
2013-3-28,71,60,54,-100,-100,-100,0,0,100,0.00,40.00,0,-999,0,0.00
2013-3-29,76,60,49,-100,-100,-100,0,0,100,0.00,40.00,0,-999,0,0.00
2013-3-30,67,60,57,-100,-100,-100,0,0,100,0.00,40.00,0,-999,0,0.00
2013-3-31,65,58,51,-100,-100,-100,0,0,100,0.00,40.00,0,-999,0,0.00
2013-4-1,64,58,53,-100,-100,-100,0,0,100,0.00,40.00,0,-999,0,0.00
2013-4-2,69,58,46,-100,-100,-100,0,0,100,0.00,40.00,0,-999,0,0.00
2013-4-3,75,57,47,-100,-100,-100,0,0,100,0.00,40.00,0,-999,0,0.00
2013-4-4,64,58,51,-100,-100,-100,0,0,100,0.00,40.00,0,-999,0,0.00
2013-4-5,63,58,54,-100,-100,-100,0,0,100,0.00,40.00,0,-999,0,0.00
2013-4-6,62,56,51,-100,-100,-100,0,0,100,0.00,40.00,0,-999,0,0.00
2013-4-7,62,55,51,-100,-100,-100,0,0,100,0.00,40.00,0,-999,0,0.00
2013-4-8,65,55,46,-100,-100,-100,0,0,100,0.00,40.00,0,-999,0,0.00
2013-4-9,73,60,48,-100,-100,-100,0,0,100,0.00,40.00,0,-999,0,0.00
2013-4-10,81,65,48,-100,-100,-100,0,0,100,0.00,40.00,0,-999,0,0.00
2013-4-11,70,60,48,-100,-100,-100,0,0,100,0.00,40.00,0,-999,0,0.00
2013-4-12,76,57,44,-100,-100,-100,0,0,100,0.00,40.00,0,-999,0,0.00
2013-4-13,66,57,47,-100,-100,-100,0,0,100,0.00,40.00,0,-999,0,0.00
2013-4-14,65,56,44,-100,-100,-100,0,0,100,0.00,40.00,0,-999,0,0.00
2013-4-15,56,51,46,-100,-100,-100,0,0,100,0.00,40.00,0,-999,0,0.00
2013-4-16,65,54,40,-100,-100,-100,0,0,100,0.00,40.00,0,-999,0,0.00
2013-4-17,67,58,50,-100,-100,-100,0,0,100,0.00,40.00,0,-999,0,0.00
2013-4-18,74,58,41,-100,-100,-100,0,0,100,0.00,40.00,0,-999,0,0.00
2013-4-19,81,63,46,-100,-100,-100,0,0,100,0.00,40.00,0,-999,0,0.00
2013-4-20,79,66,51,-100,-100,-100,0,0,100,0.00,40.00,0,-999,0,0.00
2013-4-21,84,67,49,-100,-100,-100,0,0,100,0.00,40.00,0,-999,0,0.00
2013-4-22,87,70,54,-100,-100,-100,0,0,100,0.00,40.00,0,-999,0,0.00
2013-4-23,82,69,57,-100,-100,-100,0,0,100,0.00,40.00,0,-999,0,0.00
2013-4-24,73,59,48,-100,-100,-100,0,0,100,0.00,40.00,0,-999,0,0.00
2013-4-25,68,59,51,-100,-100,-100,0,0,100,0.00,40.00,0,-999,0,0.00
2013-4-26,73,59,50,-100,-100,-100,0,0,100,0.00,40.00,0,-999,0,0.00
2013-4-27,81,59,47,-100,-100,-100,0,0,100,0.00,40.00,0,-999,0,0.00
2013-4-28,87,67,52,-100,-100,-100,0,0,100,0.00,40.00,0,-999,0,0.00
2013-4-29,86,70,57,-100,-100,-100,0,0,100,0.00,40.00,0,-999,0,0.00
2013-4-30,82,69,55,-100,-100,-100,0,0,100,0.00,40.00,0,-999,0,0.00
2013-5-1,83,72,62,-100,-100,-100,0,0,100,0.00,40.00,0,-999,0,0.00
2013-5-2,90,70,54,-100,-100,-100,0,0,100,0.00,40.00,0,-999,0,0.00
2013-5-3,89,69,54,-100,-100,-100,0,0,100,0.00,40.00,0,-999,0,0.00
2013-5-4,86,72,55,-100,-100,-100,0,0,100,0.00,40.00,0,-999,0,0.00
2013-5-5,69,59,54,-100,-100,-100,0,0,100,0.00,40.00,0,-999,0,0.00
2013-5-6,67,61,55,-100,-100,-100,0,0,100,0.00,40.00,0,-999,0,0.00
2013-5-7,69,62,55,-100,-100,-100,0,0,100,0.00,40.00,0,-999,0,0.00
2013-5-8,66,58,52,-100,-100,-100,0,0,100,0.00,40.00,0,-999,0,0.00
2013-5-9,66,58,51,-100,-100,-100,0,0,100,0.00,40.00,0,-999,0,0.00
2013-5-10,76,61,51,-100,-100,-100,0,0,100,0.00,40.00,0,-999,0,0.00
2013-5-11,91,69,53,-100,-100,-100,0,0,100,0.00,40.00,0,-999,0,0.00
2013-5-12,82,71,56,-100,-100,-100,0,0,100,0.00,40.00,0,-999,0,0.00
2013-5-13,82,67,54,-100,-100,-100,0,0,100,0.00,40.00,0,-999,0,0.00
2013-5-14,75,63,54,-100,-100,-100,0,0,100,0.00,40.00,0,-999,0,0.00
2013-5-15,65,56,51,-100,-100,-100,0,0,100,0.00,40.00,0,-999,0,0.00
2013-5-16,66,58,54,-100,-100,-100,0,0,100,0.00,40.00,0,-999,0,0.00
2013-5-17,65,57,52,-100,-100,-100,0,0,100,0.00,40.00,0,-999,0,0.00
2013-5-18,73,59,49,-100,-100,-100,0,0,100,0.00,40.00,0,-999,0,0.00
2013-5-19,82,65,51,-100,-100,-100,0,0,100,0.00,40.00,0,-999,0,0.00
2013-5-20,87,71,52,-100,-100,-100,0,0,100,0.00,40.00,0,-999,0,0.00
2013-5-21,66,58,51,-100,-100,-100,0,0,100,0.00,40.00,0,-999,0,0.00
2013-5-22,63,54,46,-100,-100,-100,0,0,100,0.00,40.00,0,-999,0,0.00
2013-5-23,66,56,48,-100,-100,-100,0,0,100,0.00,40.00,0,-999,0,0.00
2013-5-24,71,56,46,-100,-100,-100,0,0,100,0.00,40.00,0,-999,0,0.00
2013-5-25,65,56,48,-100,-100,-100,0,0,100,0.00,40.00,0,-999,0,0.00
2013-5-26,68,59,52,-100,-100,-100,0,0,100,0.00,40.00,0,-999,0,0.00
2013-5-27,61,58,54,-100,-100,-100,0,0,100,0.00,40.00,0,-999,0,0.00
2013-5-28,68,61,57,-100,-100,-100,0,0,100,0.00,40.00,0,-999,0,0.00
2013-5-29,68,60,53,-100,-100,-100,0,0,100,0.00,40.00,0,-999,0,0.00
2013-5-30,77,60,50,-100,-100,-100,0,0,100,0.00,40.00,0,-999,0,0.00
2013-5-31,86,67,51,-100,-100,-100,0,0,100,0.00,40.00,0,-999,0,0.00
2013-6-1,92,74,56,-100,-100,-100,0,0,100,0.00,40.00,0,-999,0,0.00
2013-6-2,84,68,58,-100,-100,-100,0,0,100,0.00,40.00,0,-999,0,0.00
2013-6-3,79,64,55,-100,-100,-100,0,0,100,0.00,40.00,0,-999,0,0.00
2013-6-4,73,62,54,-100,-100,-100,0,0,100,0.00,40.00,0,-999,0,0.00
2013-6-5,74,62,53,-100,-100,-100,0,0,100,0.00,40.00,0,-999,0,0.00
2013-6-6,82,64,52,-100,-100,-100,0,0,100,0.00,40.00,0,-999,0,0.00
2013-6-7,98,70,54,-100,-100,-100,0,0,100,0.00,40.00,0,-999,0,0.00
2013-6-8,103,82,65,-100,-100,-100,0,0,100,0.00,40.00,0,-999,0,0.00
2013-6-9,74,65,59,-100,-100,-100,0,0,100,0.00,40.00,0,-999,0,0.00
2013-6-10,69,62,57,-100,-100,-100,0,0,100,0.00,40.00,0,-999,0,0.00
2013-6-11,77,64,54,-100,-100,-100,0,0,100,0.00,40.00,0,-999,0,0.00
2013-6-12,77,66,54,-100,-100,-100,0,0,100,0.00,40.00,0,-999,0,0.00
2013-6-13,80,65,51,-100,-100,-100,0,0,100,0.00,40.00,0,-999,0,0.00
2013-6-14,84,70,54,-100,-100,-100,0,0,100,0.00,40.00,0,-999,0,0.00
2013-6-15,75,62,53,-100,-100,-100,0,0,100,0.00,40.00,0,-999,0,0.00
2013-6-16,80,64,52,-100,-100,-100,0,0,100,0.00,40.00,0,-999,0,0.00
2013-6-17,73,60,54,-100,-100,-100,0,0,100,0.00,40.00,0,-999,0,0.00
2013-6-18,65,60,54,-100,-100,-100,0,0,100,0.00,40.00,0,-999,0,0.00
2013-6-19,73,62,52,-100,-100,-100,0,0,100,0.00,40.00,0,-999,0,0.00
2013-6-20,54,53,53,-100,-100,-100,0,0,100,0.00,40.00,0,-999,0,0.00
2013-6-22,88,76,59,-100,-100,-100,0,0,100,0.00,40.00,0,-999,0,0.00
2013-6-23,69,63,57,-100,-100,-100,0,0,100,0.00,40.00,0,-999,0,0.00
2013-6-24,69,64,58,-100,-100,-100,0,0,100,0.00,40.00,0,-999,0,0.00
2013-6-25,77,68,61,-100,-100,-100,0,0,100,0.00,40.00,0,-999,0,0.00
2013-6-26,83,72,63,-100,-100,-100,0,0,100,0.00,40.00,0,-999,0,0.00
2013-6-27,91,78,61,-100,-100,-100,0,0,100,0.00,40.00,0,-999,0,0.00
2013-6-28,99,88,69,-100,-100,-100,0,0,100,0.00,40.00,0,-999,0,0.00
2013-6-29,101,86,69,-100,-100,-100,0,0,100,0.00,40.00,0,-999,0,0.00
2013-6-30,98,82,69,-100,-100,-100,0,0,100,0.00,40.00,0,-999,0,0.00
2013-7-1,98,86,67,-100,-100,-100,0,0,100,0.00,40.00,0,-999,0,0.00
2013-7-2,102,84,69,-100,-100,-100,0,0,100,0.00,40.00,0,-999,0,0.00
2013-7-3,98,81,65,-100,-100,-100,0,0,100,0.00,40.00,0,-999,0,0.00
2013-7-4,98,85,73,-100,-100,-100,0,0,100,0.00,40.00,0,-999,0,0.00
2013-7-5,74,65,58,-100,-100,-100,0,0,100,0.00,40.00,0,-999,0,0.00
2013-7-6,80,64,56,-100,-100,-100,0,0,100,0.00,40.00,0,-999,0,0.00
2013-7-7,85,67,54,-100,-100,-100,0,0,100,0.00,40.00,0,-999,0,0.00
2013-7-8,89,68,52,-100,-100,-100,0,0,100,0.00,40.00,0,-999,0,0.00
2013-7-9,98,79,61,-100,-100,-100,0,0,100,0.00,40.00,0,-999,0,0.00
2013-7-10,91,71,58,-100,-100,-100,0,0,100,0.00,40.00,0,-999,0,0.00
2013-7-11,80,65,53,-100,-100,-100,0,0,100,0.00,40.00,0,-999,0,0.00
2013-7-12,61,57,54,-100,-100,-100,0,0,100,0.00,40.00,0,-999,0,0.00
2013-7-17,80,71,59,-100,-100,-100,0,0,100,0.00,40.00,0,-999,0,0.00
2013-7-18,89,70,54,-100,-100,-100,0,0,100,0.00,40.00,0,-999,0,0.00
2013-7-19,91,71,55,-100,-100,-100,0,0,100,0.00,40.00,0,-999,0,0.00
2013-7-20,91,71,54,-100,-100,-100,0,0,100,0.00,40.00,0,-999,0,0.00
2013-7-21,91,70,56,-100,-100,-100,0,0,100,0.00,40.00,0,-999,0,0.00
2013-7-22,83,71,58,-100,-100,-100,0,0,100,0.00,40.00,0,-999,0,0.00
2013-7-23,83,71,65,-100,-100,-100,0,0,100,0.00,40.00,0,-999,0,0.00
2013-7-24,92,74,62,-100,-100,-100,0,0,100,0.00,40.00,0,-999,0,0.00
2013-7-25,86,72,62,-100,-100,-100,0,0,100,0.00,40.00,0,-999,0,0.00
2013-7-26,87,69,57,-100,-100,-100,0,0,100,0.00,40.00,0,-999,0,0.00
2013-7-27,82,67,57,-100,-100,-100,0,0,100,0.00,40.00,0,-999,0,0.00
2013-7-28,81,66,56,-100,-100,-100,0,0,100,0.00,40.00,0,-999,0,0.00
2013-7-29,80,64,54,-100,-100,-100,0,0,100,0.00,40.00,0,-999,0,0.00
2013-7-30,83,65,54,-100,-100,-100,0,0,100,0.00,40.00,0,-999,0,0.00
2013-7-31,81,65,54,-100,-100,-100,0,0,100,0.00,40.00,0,-999,0,0.00
2013-8-1,74,67,55,-100,-100,-100,0,0,100,0.00,40.00,0,-999,0,0.00
2013-8-2,82,65,54,-100,-100,-100,0,0,100,0.00,40.00,0,-999,0,0.00
2013-8-3,82,65,52,-100,-100,-100,0,0,100,0.00,40.00,0,-999,0,0.00
2013-8-4,79,63,54,-100,-100,-100,0,0,100,0.00,40.00,0,-999,0,0.00
2013-8-5,80,63,54,-100,-100,-100,0,0,100,0.00,40.00,0,-999,0,0.00
2013-8-6,72,61,55,-100,-100,-100,0,0,100,0.00,40.00,0,-999,0,0.00
2013-8-7,73,63,57,-100,-100,-100,0,0,100,0.00,40.00,0,-999,0,0.00
2013-8-8,74,63,56,-100,-100,-100,0,0,100,0.00,40.00,0,-999,0,0.00
2013-8-9,73,62,54,-100,-100,-100,0,0,100,0.00,40.00,0,-999,0,0.00
2013-8-10,77,62,57,-100,-100,-100,0,0,100,0.00,40.00,0,-999,0,0.00
2013-8-11,83,66,58,-100,-100,-100,0,0,100,0.00,40.00,0,-999,0,0.00
2013-8-12,83,68,54,-100,-100,-100,0,0,100,0.00,40.00,0,-999,0,0.00
2013-8-13,91,74,54,-100,-100,-100,0,0,100,0.00,40.00,0,-999,0,0.00
2013-8-14,84,66,57,-100,-100,-100,0,0,100,0.00,40.00,0,-999,0,0.00
2013-8-15,85,70,62,-100,-100,-100,0,0,100,0.00,40.00,0,-999,0,0.00
2013-8-16,87,74,63,-100,-100,-100,0,0,100,0.00,40.00,0,-999,0,0.00
2013-8-17,78,67,59,-100,-100,-100,0,0,100,0.00,40.00,0,-999,0,0.00
2013-8-18,97,75,54,-100,-100,-100,0,0,100,0.00,40.00,0,-999,0,0.00
2013-8-19,95,78,67,-100,-100,-100,0,0,100,0.00,40.00,0,-999,0,0.00
2013-8-20,87,72,61,-100,-100,-100,0,0,100,0.00,40.00,0,-999,0,0.00
2013-8-21,79,64,58,-100,-100,-100,0,0,100,0.00,40.00,0,-999,0,0.00
2013-8-22,74,64,57,-100,-100,-100,0,0,100,0.00,40.00,0,-999,0,0.00
2013-8-23,79,64,54,-100,-100,-100,0,0,100,0.00,40.00,0,-999,0,0.00
2013-8-24,80,67,57,-100,-100,-100,0,0,100,0.00,40.00,0,-999,0,0.00
2013-8-25,83,69,62,-100,-100,-100,0,0,100,0.00,40.00,0,-999,0,0.00
2013-8-26,79,69,61,-100,-100,-100,0,0,100,0.00,40.00,0,-999,0,0.00
2013-8-27,75,62,56,-100,-100,-100,0,0,100,0.00,40.00,0,-999,0,0.00
2013-8-28,82,76,69,-100,-100,-100,0,0,100,0.00,40.00,0,-999,0,0.00
2013-8-29,83,70,62,-100,-100,-100,0,0,100,0.00,40.00,0,-999,0,0.00
2013-8-30,91,73,60,-100,-100,-100,0,0,100,0.00,40.00,0,-999,0,0.00
2013-8-31,84,70,59,-100,-100,-100,0,0,100,0.00,40.00,0,-999,0,0.00
2013-9-1,83,70,62,-100,-100,-100,0,0,100,0.00,40.00,0,-999,0,0.00
2013-9-2,80,71,65,-100,-100,-100,0,0,100,0.00,40.00,0,-999,0,0.00
2013-9-3,76,68,61,-100,-100,-100,0,0,100,0.00,40.00,0,-999,0,0.00
2013-9-4,76,66,58,-100,-100,-100,0,0,100,0.00,40.00,0,-999,0,0.00
2013-9-5,77,67,61,-100,-100,-100,0,0,100,0.00,40.00,0,-999,0,0.00
2013-9-6,90,71,54,-100,-100,-100,0,0,100,0.00,40.00,0,-999,0,0.00
2013-9-7,94,77,61,-100,-100,-100,0,0,100,0.00,40.00,0,-999,0,0.00
2013-9-8,96,74,62,-100,-100,-100,0,0,100,0.00,40.00,0,-999,0,0.00
2013-9-9,96,78,62,-100,-100,-100,0,0,100,0.00,40.00,0,-999,0,0.00
2013-9-10,83,70,61,-100,-100,-100,0,0,100,0.00,40.00,0,-999,0,0.00
2013-9-11,74,64,58,-100,-100,-100,0,0,100,0.00,40.00,0,-999,0,0.00
2013-9-12,80,67,58,-100,-100,-100,0,0,100,0.00,40.00,0,-999,0,0.00
2013-9-13,83,67,58,-100,-100,-100,0,0,100,0.00,40.00,0,-999,0,0.00
2013-9-14,71,61,55,-100,-100,-100,0,0,100,0.00,40.00,0,-999,0,0.00
2013-9-15,78,67,56,-100,-100,-100,0,0,100,0.00,40.00,0,-999,0,0.00
2013-9-16,80,66,59,-100,-100,-100,0,0,100,0.00,40.00,0,-999,0,0.00
2013-9-17,73,64,59,-100,-100,-100,0,0,100,0.00,40.00,0,-999,0,0.00
2013-9-18,71,59,53,-100,-100,-100,0,0,100,0.00,40.00,0,-999,0,0.00
2013-9-19,91,70,51,-100,-100,-100,0,0,100,0.00,40.00,0,-999,0,0.00
2013-9-20,70,63,56,-100,-100,-100,0,0,100,0.00,40.00,0,-999,0,0.00
2013-9-21,65,63,59,-100,-100,-100,0,0,100,0.00,40.00,0,-999,0,0.00
2013-9-22,72,61,53,-100,-100,-100,0,0,100,0.00,40.00,0,-999,0,0.00
2013-9-23,81,66,48,-100,-100,-100,0,0,100,0.00,40.00,0,-999,0,0.00
2013-9-24,72,62,55,-100,-100,-100,0,0,100,0.00,40.00,0,-999,0,0.00
2013-9-25,65,60,51,-100,-100,-100,0,0,100,0.00,40.00,0,-999,0,0.00
2013-9-26,73,60,47,-100,-100,-100,0,0,100,0.00,40.00,0,-999,0,0.00
2013-9-27,76,62,47,-100,-100,-100,0,0,100,0.00,40.00,0,-999,0,0.00
2013-9-28,82,65,48,-100,-100,-100,0,0,100,0.00,40.00,0,-999,0,0.00
2013-9-29,75,67,56,-100,-100,-100,0,0,100,0.00,40.00,0,-999,0,0.00
2013-9-30,73,66,59,-100,-100,-100,0,0,100,0.00,40.00,0,-999,0,0.00
2013-10-1,72,67,56,-100,-100,-100,0,0,100,0.00,40.00,0,-999,0,0.00
2013-10-2,76,60,46,-100,-100,-100,0,0,100,0.00,40.00,0,-999,0,0.00
2013-10-3,72,59,45,-100,-100,-100,0,0,100,0.00,40.00,0,-999,0,0.00
2013-10-4,76,67,58,-100,-100,-100,0,0,100,0.00,40.00,0,-999,0,0.00
2013-10-5,80,63,45,-100,-100,-100,0,0,100,0.00,40.00,0,-999,0,0.00
2013-10-6,83,62,46,-100,-100,-100,0,0,100,0.00,40.00,0,-999,0,0.00
2013-10-7,81,68,51,-100,-100,-100,0,0,100,0.00,40.00,0,-999,0,0.00
2013-10-8,74,61,49,-100,-100,-100,0,0,100,0.00,40.00,0,-999,0,0.00
2013-10-9,68,56,47,-100,-100,-100,0,0,100,0.00,40.00,0,-999,0,0.00
2013-10-10,73,59,46,-100,-100,-100,0,0,100,0.00,40.00,0,-999,0,0.00
2013-10-11,71,58,48,-100,-100,-100,0,0,100,0.00,40.00,0,-999,0,0.00
2013-10-12,72,53,42,-100,-100,-100,0,0,100,0.00,40.00,0,-999,0,0.00
2013-10-13,73,59,48,-100,-100,-100,0,0,100,0.00,40.00,0,-999,0,0.00
2013-10-14,78,60,45,-100,-100,-100,0,0,100,0.00,40.00,0,-999,0,0.00
2013-10-15,77,61,44,-100,-100,-100,0,0,100,0.00,40.00,0,-999,0,0.00
2013-10-16,81,62,47,-100,-100,-100,0,0,100,0.00,40.00,0,-999,0,0.00
2013-10-17,80,61,47,-100,-100,-100,0,0,100,0.00,40.00,0,-999,0,0.00
2013-10-18,83,60,47,-100,-100,-100,0,0,100,0.00,40.00,0,-999,0,0.00
2013-10-19,82,57,43,-100,-100,-100,0,0,100,0.00,40.00,0,-999,0,0.00
2013-10-20,82,63,47,-100,-100,-100,0,0,100,0.00,40.00,0,-999,0,0.00
2013-10-21,81,62,48,-100,-100,-100,0,0,100,0.00,40.00,0,-999,0,0.00
2013-10-22,82,59,46,-100,-100,-100,0,0,100,0.00,40.00,0,-999,0,0.00
2013-10-23,79,58,47,-100,-100,-100,0,0,100,0.00,40.00,0,-999,0,0.00
2013-10-24,61,53,46,-100,-100,-100,0,0,100,0.00,40.00,0,-999,0,0.00
2013-10-25,77,59,46,-100,-100,-100,0,0,100,0.00,40.00,0,-999,0,0.00
2013-10-26,79,56,40,-100,-100,-100,0,0,100,0.00,40.00,0,-999,0,0.00
2013-10-27,60,51,44,-100,-100,-100,0,0,100,0.00,40.00,0,-999,0,0.00
2013-10-28,59,53,48,-100,-100,-100,0,0,100,0.00,40.00,0,-999,0,0.00
2013-10-29,62,55,44,-100,-100,-100,0,0,100,0.00,40.00,0,-999,0,0.00
2013-10-30,65,52,42,-100,-100,-100,0,0,100,0.00,40.00,0,-999,0,0.00
2013-10-31,70,54,42,-100,-100,-100,0,0,100,0.00,40.00,0,-999,0,0.00
2013-11-1,72,55,43,-100,-100,-100,0,0,100,0.00,40.00,0,-999,0,0.00
2013-11-2,73,54,43,-100,-100,-100,0,0,100,0.00,40.00,0,-999,0,0.00
2013-11-3,62,52,39,-100,-100,-100,0,0,100,0.00,40.00,0,-999,0,0.00
2013-11-4,66,52,38,-100,-100,-100,0,0,100,0.00,40.00,0,-999,0,0.00
2013-11-5,70,59,47,-100,-100,-100,0,0,100,0.00,40.00,0,-999,0,0.00
2013-11-6,66,56,43,-100,-100,-100,0,0,100,0.00,40.00,0,-999,0,0.00
2013-11-7,75,59,47,-100,-100,-100,0,0,100,0.00,40.00,0,-999,0,0.00
2013-11-8,74,56,43,-100,-100,-100,0,0,100,0.00,40.00,0,-999,0,0.00
2013-11-9,73,55,42,-100,-100,-100,0,0,100,0.00,40.00,0,-999,0,0.00
2013-11-10,67,54,40,-100,-100,-100,0,0,100,0.00,40.00,0,-999,0,0.00
2013-11-11,68,54,46,-100,-100,-100,0,0,100,0.00,40.00,0,-999,0,0.00
2013-11-12,73,59,50,-100,-100,-100,0,0,100,0.00,40.00,0,-999,0,0.00
2013-11-13,75,57,44,-100,-100,-100,0,0,100,0.00,40.00,0,-999,0,0.00
2013-11-14,70,54,44,-100,-100,-100,0,0,100,0.00,40.00,0,-999,0,0.00
2013-11-15,63,51,43,-100,-100,-100,0,0,100,0.00,40.00,0,-999,0,0.00
2013-11-16,60,49,37,-100,-100,-100,0,0,100,0.00,40.00,0,-999,0,0.00
2013-11-17,63,53,45,-100,-100,-100,0,0,100,0.00,40.00,0,-999,0,0.00
2013-11-18,58,49,40,-100,-100,-100,0,0,100,0.00,40.00,0,-999,0,0.00
2013-11-19,60,53,45,-100,-100,-100,0,0,100,0.00,40.00,0,-999,0,0.00
2013-11-20,62,55,49,-100,-100,-100,0,0,100,0.00,40.00,0,-999,0,0.00
2013-11-21,57,52,46,-100,-100,-100,0,0,100,0.00,40.00,0,-999,0,0.00
2013-11-22,65,55,47,-100,-100,-100,0,0,100,0.00,40.00,0,-999,0,0.00
2013-11-23,59,47,40,-100,-100,-100,0,0,100,0.00,40.00,0,-999,0,0.00
2013-11-24,61,48,36,-100,-100,-100,0,0,100,0.00,40.00,0,-999,0,0.00
2013-11-25,58,48,36,-100,-100,-100,0,0,100,0.00,40.00,0,-999,0,0.00
2013-11-26,58,49,40,-100,-100,-100,0,0,100,0.00,40.00,0,-999,0,0.00
2013-11-27,58,49,40,-100,-100,-100,0,0,100,0.00,40.00,0,-999,0,0.00
2013-11-28,67,50,38,-100,-100,-100,0,0,100,0.00,40.00,0,-999,0,0.00
2013-11-29,65,51,36,-100,-100,-100,0,0,100,0.00,40.00,0,-999,0,0.00
2013-11-30,65,52,40,-100,-100,-100,0,0,100,0.00,40.00,0,-999,0,0.00
2013-12-1,67,50,40,-100,-100,-100,0,0,100,0.00,40.00,0,-999,0,0.00
2013-12-2,65,50,39,-100,-100,-100,0,0,100,0.00,40.00,0,-999,0,0.00
2013-12-3,54,47,39,-100,-100,-100,0,0,100,0.00,40.00,0,-999,0,0.00
2013-12-4,45,38,30,-100,-100,-100,0,0,100,0.00,40.00,0,-999,0,0.00
2013-12-5,47,35,25,-100,-100,-100,0,0,100,0.00,40.00,0,-999,0,0.00
2013-12-6,49,38,27,-100,-100,-100,0,0,100,0.00,40.00,0,-999,0,0.00
2013-12-7,46,42,32,-100,-100,-100,0,0,100,0.00,40.00,0,-999,0,0.00
2013-12-8,39,34,29,-100,-100,-100,0,0,100,0.00,40.00,0,-999,0,0.00
2013-12-9,45,36,31,-100,-100,-100,0,0,100,0.00,40.00,0,-999,0,0.00
2013-12-10,47,36,25,-100,-100,-100,0,0,100,0.00,40.00,0,-999,0,0.00
2013-12-11,49,39,29,-100,-100,-100,0,0,100,0.00,40.00,0,-999,0,0.00
2013-12-12,58,42,29,-100,-100,-100,0,0,100,0.00,40.00,0,-999,0,0.00
2013-12-13,58,41,30,-100,-100,-100,0,0,100,0.00,40.00,0,-999,0,0.00
2013-12-14,55,41,31,-100,-100,-100,0,0,100,0.00,40.00,0,-999,0,0.00
2013-12-15,57,42,31,-100,-100,-100,0,0,100,0.00,40.00,0,-999,0,0.00
2013-12-16,61,48,36,-100,-100,-100,0,0,100,0.00,40.00,0,-999,0,0.00
2013-12-17,61,48,36,-100,-100,-100,0,0,100,0.00,40.00,0,-999,0,0.00
2013-12-18,59,49,40,-100,-100,-100,0,0,100,0.00,40.00,0,-999,0,0.00
2013-12-19,58,47,39,-100,-100,-100,0,0,100,0.00,40.00,0,-999,0,0.00
2013-12-20,61,45,33,-100,-100,-100,0,0,100,0.00,40.00,0,-999,0,0.00
2013-12-21,63,45,33,-100,-100,-100,0,0,100,0.00,40.00,0,-999,0,0.00
2013-12-22,62,46,34,-100,-100,-100,0,0,100,0.00,40.00,0,-999,0,0.00
2013-12-23,60,47,36,-100,-100,-100,0,0,100,0.00,40.00,0,-999,0,0.00
2013-12-24,67,50,36,-100,-100,-100,0,0,100,0.00,40.00,0,-999,0,0.00
2013-12-25,61,46,36,-100,-100,-100,0,0,100,0.00,40.00,0,-999,0,0.00
2013-12-26,62,46,34,-100,-100,-100,0,0,100,0.00,40.00,0,-999,0,0.00
2013-12-27,56,44,33,-100,-100,-100,0,0,100,0.00,40.00,0,-999,0,0.00
2013-12-28,64,47,32,-100,-100,-100,0,0,100,0.00,40.00,0,-999,0,0.00
2013-12-29,61,52,43,-100,-100,-100,0,0,100,0.00,40.00,0,-999,0,0.00
2013-12-30,62,43,32,-100,-100,-100,0,0,100,0.00,40.00,0,-999,0,0.00
2013-12-31,59,45,34,-100,-100,-100,0,0,100,0.00,40.00,0,-999,0,0.00
2014-1-1,64,46,32,-100,-100,-100,0,0,100,0.00,40.00,0,-999,0,0.00
2014-1-2,62,48,36,-100,-100,-100,0,0,100,0.00,40.00,0,-999,0,0.00